Regional Weather Roundup
Issued by NWS

Home | Current Version | Previous Version | Text Only | Print | Product List | Glossary Off
Versions: 1 2 3 4 5 6 7 8 9 10 11 12 13 14 15 16 17 18 19 20 21 22 23 24 25 26 27 28 29 30 31 32 33 34 35 36 37 38 39 40 41 42 43 44 45 46 47 48 49 50

000
ASUS43 KFSD 222110
RWRSD

WEATHER ROUNDUP FOR SOUTH DAKOTA
NATIONAL WEATHER SERVICE SIOUX FALLS SD
300 PM CST WED FEB 22 2017

NOTE: "FAIR" INDICATES FEW OR NO CLOUDS BELOW 12,000 FEET WITH NO
SIGNIFICANT WEATHER AND/OR OBSTRUCTIONS TO VISIBILITY.


SDZ001>005-009-010-012>017-222200-
NORTHWEST AND NORTH CENTRAL SOUTH DAKOTA

CITY           SKY/WX    TMP DP  RH WIND       PRES   REMARKS
BUFFALO          N/A     35  30  82 N15       29.78R WCI  25
FAITH            N/A     38  33  82 N22       29.79S
MOBRIDGE       MIX PCPN  37  32  82 N15       29.76R
$$

SDZ012>016-024>037-041>051-057-063-072>074-222200-
SOUTHWEST AND SOUTH CENTRAL SOUTH DAKOTA

CITY           SKY/WX    TMP DP  RH WIND       PRES   REMARKS
RAPID CTY ARPT SUNNY     56  17  21 NW24G32   29.74S
PIERRE         MOSUNNY   53  36  52 NW22G30   29.72S
CUSTER         MOSUNNY   41  16  36 NW8       29.76F
ELLSWORTH AFB  SUNNY     54  22  29 NW31G40   29.73S
PHILIP         MOSUNNY   56  30  37 NW28G36   29.74R
PINE RIDGE     SUNNY     57  21  24 W18G26    29.76S
SPEARFISH      LGT RAIN  41  32  70 NW16G25   29.81R
WINNER         MOCLDY    61  29  29 NW24G33   29.72F
$$

SDZ004>011-016>023-039-040-222200-
NORTHEAST SOUTH DAKOTA

CITY           SKY/WX    TMP DP  RH WIND       PRES   REMARKS
ABERDEEN       CLOUDY    36  32  85 N16       29.76R
WATERTOWN      SUNNY     47  38  71 NW17      29.66R
BROOKINGS      SUNNY     53  42  66 NW16      29.63R
SISSETON         N/A     39  37  92 N23       29.69R
$$

SDZ017-020-022-023-036>040-048>070-222200-
SOUTHEAST SOUTH DAKOTA

CITY           SKY/WX    TMP DP  RH WIND       PRES   REMARKS
SIOUX FALLS    PTSUNNY   58  43  57 W20G30    29.64R
HURON          SUNNY     53  40  61 N20G25    29.70R
CHAMBERLAIN    MOSUNNY   57  41  54 N16G23    29.73R
MITCHELL       MOSUNNY   58  40  51 NW26      29.69R
YANKTON        SUNNY    N/A N/A N/A NW25G33   29.65R
$$

ABBREVIATIONS USED IN REMARKS
   TC - TEMPERATURE IN CELSIUS
  WCI - WIND CHILL INDEX
   HX - HEAT INDEX
  VSB - VISIBILITY





USA.gov is the U.S. government's official web portal to all federal, state and local government web resources and services.